sat.trackr.live / text

‹ back to catalog

STARLINK-36657

NORAD 67835 · 2026-033Q

PAYLOAD ACTIVE UNKNOWN

§ Identity

Operator
Country
US
Launch date
2026-02-16
Launch site
AFETR
Launch vehicle
Mass (kg)
RCS (m²)

Purposes: comms

External: N2YO · Heavens-Above · Gunter

§ Orbital elements

Epoch: 2026-05-24T20:13:08.864544Z

Period
94.27 min
Inclination
42.9993°
Eccentricity
0.0001546
Mean motion
15.27569632 rev/d
Perigee alt
482.0 km
Apogee alt
484.1 km
Semi-major
6,861.2 km
B*
-1.7545e-4
RAAN
196.7080°
Arg perigee
272.0250°
Mean anomaly
88.0424°
Rev number
1,632

§ Raw data

STARLINK-366571 67835U 26033Q   26144.84246371 -.00005085  00000+0 -17545-3 0  99992 67835  42.9993 196.7080 0001546 272.0250  88.0424 15.27569632 16326

JSON: /api/v1/satellites/67835 · /tle

For live sub-satellite position, see the globe view (requires WebGL).

§ Visibility from observer

Set your observer location to see the next 7 days of passes ≥ 10°. The values pass through the URL so the page stays shareable.

No JS? Fill the form by hand. The geolocation button needs JavaScript.